WGS F9 (USA 275)

Last updated on Fri Dec 19 2025 00:02:52 GMT+0000 (Coordinated Universal Time)

1 42075U 17016A 25352.40894583 .00000000 00000+0 00000+0 0 9999 2 42075 0.0268 343.4967 0000150 152.6559 86.3221 1.00270074 32087
UTC large
Height (km)
Speed (km/s)
/
Latitude / Longitude
Inclination (degrees)
Orbital Period (minutes)
Azimuth
Elevation
Range (km)
Doppler Factor

Next 0 passes for location: London (51.5072 / 0.1276)

Sorry there are no passes over London.